IRIDIUM 914

Satellite information

Favourite Embed

Satellite Type and Status

PAYLOADIN ORBIT

Key statistics

Satellite IRIDIUM 914 at a glance.

Uptime

10184

Days in orbit

Revolutions

≈ 14.4

Per day

Orbit

LEO

Low Earth Orbit

Inclination

86.4

Latest

Satellite identification and parameters

Extended collection of information and parameters for IRIDIUM 914.

Object identification

Identified? True

Debris? False

Object name: IRIDIUM 914

International designator: 1997-030A

Object number (NORAD): 24836

Object ID (CCSDS): 24836

Country: UNITED STATES OF AMERICA (US)

Current information (Y/N): Y

RCS size: LARGE

Orbital parameters

Period: 99.942 minutes

Inclination: 86.3991 deg

SMA: 7133.867 km

Apoapsis: 757.656 km

Periapsis: 753.809 km

RAAN: 200.3427 deg

Eccentricy: 0.0002696

Argument of periapsis: 58.1762 deg

Mean anomaly: 301.97 deg

Mean motion: 14.40838195 rev/day

Mean motion (dot): 0.00000575 rev/day2

B* drag term: 0.00017354 1/REarth

Two-line elements (TLE)

Creation date: May 6, 2025, 3:54 a.m.

Reference frame: TEME

Reference center: EARTH

Epoch: May 5, 2025, 3:53 p.m. UTC

TLE line 0: 0 IRIDIUM 914

TLE line 1: 1 24836U 97030A 25125.66218599 .00000575 00000-0 17354-3 0 9993

TLE line 2: 2 24836 86.3991 200.3427 0002696 58.1762 301.9700 14.40838195601001

Live tracking on map

Real-time ground track for satellite IRIDIUM 914.

In-orbit conjunctions

A list of the most updated potential collisions computed for object IRIDIUM 914.

Target Orbit TCA Probability of collision Miss distance Type
FENGYUN 1C DEB SSO 2024-12-15 13:52:33 0.0001257845 102.0 (m) DEBRIS
FENGYUN 1C DEB SSO 2024-12-15 05:42:10 0.0001379058 321.0 (m) DEBRIS
COSMOS 2251 DEB LEO 2024-10-09 05:22:00 0.0001782552 727.0 (m) DEBRIS
SL-14 DEB LEO 2024-06-13 13:26:19 0.0001232825 821.0 (m) DEBRIS

Associated space launch

Iridium provides global mobile telecommunications services using a constellation of 66 low earth orbit satellites in a 86.4° inclined orbit. Although 77 satellites were originally envisioned for the system and spawned the name based on the 77th element in the periodic table, the system has been scaled back. Motorola's Satellite Communications Group designed and manufactured the Iridium satellites with Lockheed Martin providing the LM-700A spacecraft buses.

IRIDIUM 914 was lifted into orbit during the mission ‘Proton-K/17S40 | Iridium 09 to 14 & Iridium 16’, on board a Proton-K/17S40 space rocket.

The launch took place on June 18, 1997, 2:02 p.m. from 81/23 (81L).

For more information about the launch, click the button.

Launch to space Proton-K/17S40 | Iridium 09 to 14 & Iridium 16
Proton-K/17S40 | Iridium 09 to 14 & Iridium 16

Agency: N/A

Status: Launch Successful

Launch date: June 18, 1997, 2:02 p.m. UTC

Rocket: Proton-K/17S40

Launch pad: 81/23 (81L)

Location: Baikonur Cosmodrome, Republic of Kazakhstan

...

Latest news about this satellite

There are no fresh news available about this satellite. Check back as we update our databases every day.


Newsletter sign-up

Weekly statistics, charts and insights to help you stay on top of the space industry.